This demonstration page uses our WeatherBlox Daily Observations layout. Learn more.

Left ArrowRight Arrow

Hourly Observations for November 26, 2018

Temp ( °F °C ) Dew Point ( °F °C ) Humidity (%) Winds ( mph kmh ) Pressure ( in mb ) Visibility ( mi km ) Precip ( " mm )
12:53 am 00:53 Clear 29 -1.7 20 -6.7 69 69 NNE 9 15 30.26 1025 10 16 0.00 0.00
1:53 am 01:53 Clear 28 -2.2 19 -7.2 69 69 NNW 6 9 30.28 1025 10 16 0.00 0.00
2:53 am 02:53 Clear 28 -2.2 19 -7.2 69 69 NNW 8 13 30.29 1026 10 16 0.00 0.00
3:53 am 03:53 Clear 27 -2.8 19 -7.2 72 72 N 6 9 30.29 1026 10 16 0.00 0.00
4:53 am 04:53 Clear 25 -3.9 18 -7.8 75 75 N 6 9 30.31 1026 10 16 0.00 0.00
5:53 am 05:53 Clear 23 -5 18 -7.8 81 81 NNW 7 11 30.32 1027 10 16 0.00 0.00
6:53 am 06:53 Clear 23 -5 17 -8.3 78 78 NNW 7 11 30.35 1028 10 16 0.00 0.00
7:53 am 07:53 Sunny 24 -4.4 18 -7.8 77 77 N 6 9 30.37 1028 10 16 0.00 0.00
8:53 am 08:53 Sunny 33 0.6 20 -6.7 58 58 N 5 7 30.36 1028 10 16 0.00 0.00
9:53 am 09:53 Sunny 44 6.7 20 -6.7 38 38 Calm 30.35 1028 10 16 0.00 0.00
10:53 am 10:53 Sunny 49 9.4 20 -6.7 32 32 VRB 3 6 30.33 1027 10 16 0.00 0.00
11:53 am 11:53 Sunny 52 11.1 17 -8.3 25 25 S 7 11 30.30 1026 10 16 0.00 0.00
12:53 pm 12:53 Sunny 54 12.2 16 -8.9 22 22 S 7 11 30.25 1025 10 16 0.00 0.00
1:53 pm 13:53 Sunny 56 13.3 12 -11.1 17 17 S 8 13 30.23 1024 10 16 0.00 0.00
2:53 pm 14:53 Sunny 57 13.9 9 -12.8 15 15 SE 3 6 30.20 1023 10 16 0.00 0.00
3:53 pm 15:53 Sunny 57 13.9 6 -14.4 13 13 S 9 15 30.19 1022 10 16 0.00 0.00
4:53 pm 16:53 Sunny 57 13.9 6 -14.4 13 13 S 8 13 30.20 1023 10 16 0.00 0.00
5:53 pm 17:53 Clear 49 9.4 11 -11.7 21 21 SE 8 13 30.21 1023 10 16 0.00 0.00
6:53 pm 18:53 Clear 44 6.7 14 -10 30 30 SE 9 15 30.23 1024 10 16 0.00 0.00
7:53 pm 19:53 Clear 44 6.7 16 -8.9 32 32 ESE 7 11 30.24 1024 10 16 0.00 0.00
8:53 pm 20:53 Clear 44 6.7 16 -8.9 32 32 ESE 8 13 30.22 1023 10 16 0.00 0.00
9:53 pm 21:53 Clear 45 7.2 18 -7.8 34 34 ESE 10 17 30.18 1022 10 16 0.00 0.00
10:53 pm 22:53 Clear 41 5 18 -7.8 39 39 SE 9 15 30.17 1022 10 16 0.00 0.00
11:53 pm 23:53 Clear 38 3.3 19 -7.2 46 46 SE 8 13 30.16 1021 10 16 0.00 0.00

Powered by AerisWeather